Location: Stoke Bliss
(52.2667°N, 2.5167°W)
Time: 00:13:35
(UTC+00:00)

Cosmos 2360 Rocket - Pass Details

Date: 03 March 2021
Orbit: 832 x 846 km, 71.0° (Epoch: 11 April)

Event Time Altitude Azimuth Distance (km) Brightness Sun altitude
Rises 18:38:00 0° 175° (S) 3,378 5.3 -7.6°
Reaches altitude 10° 18:40:41 10° 165° (SSE) 2,450 4.5 -8.0°
Maximum altitude 18:45:30 30° 105° (ESE) 1,465 2.9 -8.8°
Drops below altitude 10° 18:50:21 10° 46° (NE) 2,473 4.2 -9.5°
Sets 18:53:04 0° 37° (NE) 3,415 5.0 -9.9°
